On-line aukcie výtvarného umenia

IDNázov dielaAutorUkončenie aukcieVyvolávacia cenaVydražené zaVydražil
A000783Akt v barokovom kresle Zmeták Ernest 24.02.2021 21:005 000 €5 020 €162098
A000782Červený kvet v črepníku Pálffy Peter 24.02.2021 21:001 100 €1 100 €176220
A000781Sediaci ženský akt na modrej pohovke Zmeták Ernest 24.02.2021 21:00500 €500 €143386
A000780Voľne podľa Goesa Zmetáková Uľjana 24.02.2021 21:00300 €300 €176220
A000752Milenci Condoy Honoré Garcia 24.02.2021 21:00600 €600 €176220
A000751Klaun Hložník Vincent 24.02.2021 21:00300 €310 €143386
A000750Bez názvu Chatrný Dalibor 24.02.2021 21:00200 €200 €176220
A000748Žltý kruh Dobeš Milan 24.02.2021 21:00300 €300 €187878
A000739Zátišie s jablkami a pohárom Špitz Ernest 24.02.2021 21:00350 €350 €131436
A000736Bremä žitia Potoček Pavol 24.02.2021 21:00490 €490 €167637
A000717Conversation II. Hromec Robert 24.02.2021 21:00480 €480 €185599
A000713Všedný deň Šimurda Miloš 24.02.2021 21:00600 €600 €171163
A000712Citrón Šimurda Miloš 24.02.2021 21:00500 €500 €167637
A000672Portrét ženy Medvecká Mária 10.02.2021 21:35600 €1 060 €110760
A000659Žena IV. Barčík Andrej 10.02.2021 21:10550 €850 €115537
A000706Žena v pruhovaných šatoch Wunderlich Paul 10.02.2021 21:05600 €620 €120320
A000674Magická kompozícia Vychlopen Ivan 10.02.2021 21:00950 €950 €176220
A000660Ležiaca Barčík Andrej 10.02.2021 21:00550 €550 €115537
A000656Sen rybára Hajko Pavol 10.02.2021 21:00350 €350 €121008
A000684Oko nikdy neklame, ale nikdy netvrdí pravdu IV. Sadovská Dorota 27.01.2021 21:003 000 €3 000 €143386
A000683Tribute to Venison Janečková Katarína 27.01.2021 21:00450 €450 €143386
A000681Dobrú noc, pán Kňažko Guldan František 27.01.2021 21:00350 €350 €143386
A000679Dve podoby hmoty (Trigramy) Bočkay Milan 27.01.2021 21:00450 €450 €143386
A000646Žena na priedomí Neogrády Antal 27.01.2021 21:00290 €290 €162385
A000640Dáma so slnečníkom Neogrády Antal 27.01.2021 21:00350 €350 €162385
A000637Jesenná krajina Nemčík Július 27.01.2021 21:00480 €480 €162385
A000627Kalifornia Antik Vavrová Katarína 27.01.2021 21:00260 €260 €120675
A000626Zvedavý páv I. Vavrová Katarína 27.01.2021 21:00260 €260 €120675
A000582Na scéne Roller Peter 27.01.2021 21:00580 €580 €176220
A000581V priestore Balko Stanislav 27.01.2021 21:00480 €480 €186780
A000623Nevesta hôľ Beňo Jozef 13.01.2021 21:05380 €390 €111708
A000579Rozkvitnuté plánky Medvecká Mária 13.01.2021 21:001 190 €1 190 €143386
A000541Kytica Studený František 13.01.2021 21:00350 €360 €158519
A000481Odkiaľ prichádzate a kam idete? Mlynárčik Alex 13.01.2021 21:00600 €620 €176220
A000530Žena - Venuša - Šeherezáda Filko Stano 16.12.2020 21:355 500 €8 100 €187878
A000531Hlava Jankovič Jozef 16.12.2020 21:303 000 €5 800 €187878
A000564Pri kulise Kudláč František 16.12.2020 21:00800 €800 €157354
A000562Kompozícia Kudláč František 16.12.2020 21:00800 €800 €157354
A000548Autoportrét Zmeták Ernest 16.12.2020 21:00520 €520 €176220
A000532Pohľad na Nitru Zmeták Ernest 16.12.2020 21:003 700 €3 700 €139872
A000526Od leta do zimy Medvecká Mária 16.12.2020 21:00850 €850 €143386
A000524Pohľad na Kremnicu Schüle Gotthilf Friedrich 16.12.2020 21:00250 €260 €177460
A000479Kytička Šimerová-Martinčeková Ester 16.12.2020 21:00680 €680 €111980
A000475Bez názvu Popovič Vladimír 16.12.2020 21:00600 €600 €143386
A000443Jeseň Kollár Jozef 16.12.2020 21:00860 €860 €168843
A000442Pohľad na bratislavský Dóm Klettenhof Karl 16.12.2020 21:00500 €550 €151914
A000441Vojna Brunovský Albín 02.12.2020 21:001 500 €1 500 €170183
A000428Sánkovačka Hajko Pavol 02.12.2020 21:00350 €350 €156974
A000427Kohút na pni Hajko Pavol 02.12.2020 21:00350 €350 €156974
A000426Pod jabloňou Hajko Pavol 02.12.2020 21:00350 €350 €111980
A000425Salaš Hajko Pavol 02.12.2020 21:00350 €350 €179828
A000424Súboj Hajko Pavol 02.12.2020 21:00350 €350 €156974
A000392Jeseň Palugyay Zolo 18.11.2020 21:05980 €980 €143355
A000367Zima Beňo Jozef 18.11.2020 21:05300 €410 €145769
A000402Malý pastier kráv Móczik Felicián Jozef 18.11.2020 21:00250 €250 €153404
A000362PF 1989 Brunovský Albín 18.11.2020 21:00350 €350 €195411
A000380Dotyk I. - III. (triptych) Krivoš Juraj 04.11.2020 21:003 900 €3 900 €176220
A000350Bez názvu (Diptych) Ficzek Ferencz 04.11.2020 21:001 500 €1 500 €187878
A000346Koláž Meliš Juraj 04.11.2020 21:00500 €500 €176220
A000345Kaktus Binder Erik 04.11.2020 21:00600 €600 €187878
A000341Hlavná skúška Kudláč František 04.11.2020 21:00800 €800 €157354
A000337Pri rieke Palugyay Zolo 04.11.2020 21:00580 €600 €157354
A000336Oberačky jabĺk Čemický Ladislav 04.11.2020 21:001 200 €1 200 €156234
A000335Štúdia mužského aktu (podľa kresby z roku 1923) Fulla Ľudovít 04.11.2020 21:00160 €160 €195411
A000334Parížsky motív Schiffer Artúr 04.11.2020 21:00300 €300 €187878
A000309Pri stane Mudroch Ján 04.11.2020 21:00450 €450 €187878
A000306V interiéri Paštéka Milan 04.11.2020 21:00680 €680 €190095
A000303Pohľad na Tatry Mudrák Ján 04.11.2020 21:00450 €450 €153440
A000291Skolený jeleň Meliš Juraj 04.11.2020 21:00300 €300 €187878
A000300Hrabačka Laluha Milan 21.10.2020 21:151 200 €1 700 €115488
A000314Rotation I. Adamčiak Milan 21.10.2020 21:05650 €670 €170642
A000313Rezioni per tre esecutori Adamčiak Milan 21.10.2020 21:05550 €570 €170642
A000322Slowak Šeherezáda - Ironická mystifikácia Filko Stano 21.10.2020 21:00650 €650 €176220
A000321Dom Studený Michal 21.10.2020 21:00800 €800 €176220
A000310Chlieb náš každodenný Studený Michal 21.10.2020 21:00900 €900 €176220
A000301L. and DŽ. (Prakery) Meliš Juraj 21.10.2020 21:00700 €700 €176220
A000281Zjavenie Ormandík Marek 07.10.2020 21:00460 €460 €123174
A000267Vinohrad Ilečko Jozef 07.10.2020 21:00680 €680 €162385
A000259Problém Kudláč František 07.10.2020 21:00700 €700 €157354
A000257Iluzionista Kudláč František 07.10.2020 21:001 200 €1 200 €157354
A000181Dievča Račko Arpád 23.09.2020 21:00400 €400 €113037
A000173Premaľba Michelangela Fila Rudolf 23.09.2020 21:00380 €380 €156450
A000171Do hôr Kostka Jozef 23.09.2020 21:00650 €650 €187878
A000114Sediaci Paštéka Milan 09.09.2020 21:05520 €520 €111980
A000202Pred domom - S husami Neogrády Antal 09.09.2020 21:00500 €500 €145769
A000201Hviezdoslavov kraj Bazovský Miloš Alexander 09.09.2020 21:001 200 €1 200 €145769
A000160Podivný zver Baron Karol 09.09.2020 21:00250 €250 €111980
A000159Včelia kráľovná Baron Karol 09.09.2020 21:00150 €150 €111980
A000128Zátišie - akt Paštéka Milan 09.09.2020 21:00480 €480 €111980
A000118Vtáčí let Paštéka Milan 09.09.2020 21:00680 €680 €111980
A000146Mexický motív Hložník Vincent 26.08.2020 21:00400 €400 €128601
A000079Mexická vojna Sokol Koloman 12.08.2020 21:00800 €800 €128601
A000059Klaun Baron Karol 12.08.2020 21:00250 €250 €186780
A000057Moderna Bártfay Tibor 12.08.2020 21:001 500 €1 500 €192734
A000054Žena s károu Mravec Milan 12.08.2020 21:0050 €50 €187878
A000053Objekt Žáčko Askold 12.08.2020 21:00450 €450 €187878
A000042Ibištek Meluzin Dan 29.07.2020 21:001 600 €1 600 €143386
A000029Figurálna kompozícia Paštéka Milan 29.07.2020 21:00520 €520 €143386
A000018Srdce kométy Zoričák Ján 29.07.2020 21:003 200 €3 200 €143386
A000010Tanečnica v štýle art déco Neznámy stredoeurópsky sochár 29.07.2020 21:00950 €950 €187878
A000009Ranený Štursa Jan 29.07.2020 21:00650 €670 €115924
A000005Kinetická kompozícia Dobeš Milan 29.07.2020 21:00500 €500 €187878
A000001Poľná cesta Mednyánszky Ladislav 29.07.2020 21:001 500 €1 500 €187878

Mám záujem

Kontaktný formulár